date,time,PM10
01/01/2017,00:00,22
01/01/2017,01:00,25
01/01/2017,02:00,46
01/01/2017,03:00,4
01/01/2017,04:00,20
01/01/2017,05:00,10
01/01/2017,06:00,7
01/01/2017,07:00,6
01/01/2017,08:00,14
01/01/2017,09:00,11
01/01/2017,10:00,12
01/01/2017,11:00,11
01/01/2017,12:00,13
01/01/2017,13:00,12
01/01/2017,14:00,18
01/01/2017,15:00,19
01/01/2017,16:00,12
01/01/2017,17:00,19
01/01/2017,18:00,10
01/01/2017,19:00,18
01/01/2017,20:00,19
01/01/2017,21:00,17
01/01/2017,22:00,24
01/01/2017,23:00,11
02/01/2017,00:00,22
02/01/2017,01:00,8
02/01/2017,02:00,16
02/01/2017,03:00,23
02/01/2017,04:00,8
02/01/2017,05:00,7
02/01/2017,06:00,12
02/01/2017,07:00,20
02/01/2017,08:00,8
02/01/2017,09:00,18
02/01/2017,10:00,7
02/01/2017,11:00,18
02/01/2017,12:00,16
02/01/2017,13:00,14
02/01/2017,14:00,10
02/01/2017,15:00,13
02/01/2017,16:00,25
02/01/2017,17:00,28
02/01/2017,18:00,17
02/01/2017,19:00,21
02/01/2017,20:00,18
02/01/2017,21:00,27
02/01/2017,22:00,16
02/01/2017,23:00,13
03/01/2017,00:00,25
03/01/2017,01:00,28
03/01/2017,02:00,27
03/01/2017,03:00,15
03/01/2017,04:00,22
03/01/2017,05:00,13
03/01/2017,06:00,12
03/01/2017,07:00,17
03/01/2017,08:00,16
03/01/2017,09:00,19
03/01/2017,10:00,13
03/01/2017,11:00,20
03/01/2017,12:00,22
03/01/2017,13:00,8
03/01/2017,14:00,11
03/01/2017,15:00,13
03/01/2017,16:00,12
03/01/2017,17:00,8
03/01/2017,18:00,6
03/01/2017,19:00,17
03/01/2017,20:00,13
03/01/2017,21:00,16
03/01/2017,22:00,16
03/01/2017,23:00,15
04/01/2017,00:00,12
04/01/2017,01:00,6
04/01/2017,02:00,6
04/01/2017,03:00,22
04/01/2017,04:00,21
04/01/2017,05:00,13
04/01/2017,06:00,11
04/01/2017,07:00,11
04/01/2017,08:00,20
04/01/2017,09:00,20
04/01/2017,10:00,15
04/01/2017,11:00,9
04/01/2017,12:00,28
04/01/2017,13:00,78
04/01/2017,14:00,68
04/01/2017,15:00,40
04/01/2017,16:00,65
04/01/2017,17:00,55
04/01/2017,18:00,37
04/01/2017,19:00,55
04/01/2017,20:00,54
04/01/2017,21:00,54
04/01/2017,22:00,76
04/01/2017,23:00,27
05/01/2017,00:00,32
05/01/2017,01:00,22
05/01/2017,02:00,75
05/01/2017,03:00,99
05/01/2017,04:00,133
05/01/2017,05:00,148
05/01/2017,06:00,115
05/01/2017,07:00,50
05/01/2017,08:00,27
05/01/2017,09:00,25
05/01/2017,10:00,38
05/01/2017,11:00,65
05/01/2017,12:00,474
05/01/2017,13:00,163
05/01/2017,14:00,59
05/01/2017,15:00,51
05/01/2017,16:00,76
05/01/2017,17:00,146
05/01/2017,18:00,129
05/01/2017,19:00,105
05/01/2017,20:00,78
05/01/2017,21:00,82
05/01/2017,22:00,54
05/01/2017,23:00,62
06/01/2017,00:00,65
06/01/2017,01:00,41
06/01/2017,02:00,35
06/01/2017,03:00,18
06/01/2017,04:00,24
06/01/2017,05:00,25
06/01/2017,06:00,33
06/01/2017,07:00,29
06/01/2017,08:00,48
06/01/2017,09:00,32
06/01/2017,10:00,33
06/01/2017,11:00,36
06/01/2017,12:00,35
06/01/2017,13:00,34
06/01/2017,14:00,25
06/01/2017,15:00,23
06/01/2017,16:00,19
06/01/2017,17:00,15
06/01/2017,18:00,15
06/01/2017,19:00,13
06/01/2017,20:00,23
06/01/2017,21:00,26
06/01/2017,22:00,12
06/01/2017,23:00,18
07/01/2017,00:00,21
07/01/2017,01:00,9
07/01/2017,02:00,15
07/01/2017,03:00,8
07/01/2017,04:00,11
07/01/2017,05:00,9
07/01/2017,06:00,5
07/01/2017,07:00,10
07/01/2017,08:00,32
07/01/2017,09:00,29
07/01/2017,10:00,46
07/01/2017,11:00,37
07/01/2017,12:00,3
07/01/2017,13:00,13
07/01/2017,14:00,18
07/01/2017,15:00,30
07/01/2017,16:00,17
07/01/2017,17:00,23
07/01/2017,18:00,21
07/01/2017,19:00,46
07/01/2017,20:00,22
07/01/2017,21:00,16
07/01/2017,22:00,39
07/01/2017,23:00,17
08/01/2017,00:00,15
08/01/2017,01:00,5
08/01/2017,02:00,7
08/01/2017,03:00,15
08/01/2017,04:00,11
08/01/2017,05:00,8
08/01/2017,06:00,11
08/01/2017,07:00,9
08/01/2017,08:00,5
08/01/2017,09:00,10
08/01/2017,10:00,17
08/01/2017,11:00,40
08/01/2017,12:00,17
08/01/2017,13:00,26
08/01/2017,14:00,33
08/01/2017,15:00,25
08/01/2017,16:00,22
08/01/2017,17:00,36
08/01/2017,18:00,21
08/01/2017,19:00,12
08/01/2017,20:00,26
08/01/2017,21:00,21
08/01/2017,22:00,34
08/01/2017,23:00,20
09/01/2017,00:00,6
09/01/2017,01:00,7
09/01/2017,02:00,10
09/01/2017,03:00,6
09/01/2017,04:00,-1
09/01/2017,05:00,5
09/01/2017,06:00,11
09/01/2017,07:00,16
09/01/2017,08:00,29
09/01/2017,09:00,26
09/01/2017,10:00,26
09/01/2017,11:00,22
09/01/2017,12:00,9
09/01/2017,13:00,5
09/01/2017,14:00,33
09/01/2017,15:00,41
09/01/2017,16:00,20
09/01/2017,17:00,31
09/01/2017,18:00,21
09/01/2017,19:00,30
09/01/2017,20:00,27
09/01/2017,21:00,25
09/01/2017,22:00,28
09/01/2017,23:00,45
10/01/2017,00:00,21
10/01/2017,01:00,26
10/01/2017,02:00,41
10/01/2017,03:00,38
10/01/2017,04:00,30
10/01/2017,05:00,34
10/01/2017,06:00,22
10/01/2017,07:00,21
10/01/2017,08:00,28
10/01/2017,09:00,27
10/01/2017,10:00,25
10/01/2017,11:00,25
10/01/2017,12:00,36
10/01/2017,13:00,63
10/01/2017,14:00,67
10/01/2017,15:00,27
10/01/2017,16:00,6
10/01/2017,17:00,11
10/01/2017,18:00,17
10/01/2017,19:00,27
10/01/2017,20:00,61
10/01/2017,21:00,56
10/01/2017,22:00,70
10/01/2017,23:00,74
11/01/2017,00:00,78
11/01/2017,01:00,61
11/01/2017,02:00,22
11/01/2017,03:00,2
11/01/2017,04:00,12
11/01/2017,05:00,20
11/01/2017,06:00,21
11/01/2017,07:00,29
11/01/2017,08:00,24
11/01/2017,09:00,18
11/01/2017,10:00,24
11/01/2017,11:00,25
11/01/2017,12:00,25
11/01/2017,13:00,33
11/01/2017,14:00,30
11/01/2017,15:00,22
11/01/2017,16:00,30
11/01/2017,17:00,30
11/01/2017,18:00,28
11/01/2017,19:00,31
11/01/2017,20:00,23
11/01/2017,21:00,34
11/01/2017,22:00,30
11/01/2017,23:00,14
12/01/2017,00:00,23
12/01/2017,01:00,21
12/01/2017,02:00,28
12/01/2017,03:00,27
12/01/2017,04:00,10
12/01/2017,05:00,18
12/01/2017,06:00,17
12/01/2017,07:00,5
12/01/2017,08:00,15
12/01/2017,09:00,13
12/01/2017,10:00,13
12/01/2017,11:00,11
12/01/2017,12:00,14
12/01/2017,13:00,40
12/01/2017,14:00,21
12/01/2017,15:00,20
12/01/2017,16:00,23
12/01/2017,17:00,23
12/01/2017,18:00,30
12/01/2017,19:00,17
12/01/2017,20:00,17
12/01/2017,21:00,24
12/01/2017,22:00,15
12/01/2017,23:00,9
13/01/2017,00:00,12
13/01/2017,01:00,12
13/01/2017,02:00,8
13/01/2017,03:00,4
13/01/2017,04:00,12
13/01/2017,05:00,17
13/01/2017,06:00,8
13/01/2017,07:00,34
13/01/2017,08:00,21
13/01/2017,09:00,19
13/01/2017,10:00,14
13/01/2017,11:00,20
13/01/2017,12:00,12
13/01/2017,13:00,13
13/01/2017,14:00,17
13/01/2017,15:00,21
13/01/2017,16:00,27
13/01/2017,17:00,9
13/01/2017,18:00,26
13/01/2017,19:00,25
13/01/2017,20:00,27
13/01/2017,21:00,6
13/01/2017,22:00,18
13/01/2017,23:00,10
14/01/2017,00:00,18
14/01/2017,01:00,11
14/01/2017,02:00,11
14/01/2017,03:00,16
14/01/2017,04:00,19
14/01/2017,05:00,15
14/01/2017,06:00,22
14/01/2017,07:00,26
14/01/2017,08:00,22
14/01/2017,09:00,28
14/01/2017,10:00,25
14/01/2017,11:00,20
14/01/2017,12:00,21
14/01/2017,13:00,12
14/01/2017,14:00,12
14/01/2017,15:00,16
14/01/2017,16:00,22
14/01/2017,17:00,36
14/01/2017,18:00,31
14/01/2017,19:00,32
14/01/2017,20:00,27
14/01/2017,21:00,24
14/01/2017,22:00,30
14/01/2017,23:00,22
15/01/2017,00:00,28
15/01/2017,01:00,29
15/01/2017,02:00,40
15/01/2017,03:00,32
15/01/2017,04:00,30
15/01/2017,05:00,9
15/01/2017,06:00,10
15/01/2017,07:00,7
15/01/2017,08:00,9
15/01/2017,09:00,12
15/01/2017,10:00,17
15/01/2017,11:00,39
15/01/2017,12:00,9
15/01/2017,13:00,23
15/01/2017,14:00,29
15/01/2017,15:00,17
15/01/2017,16:00,10
15/01/2017,17:00,26
15/01/2017,18:00,14
15/01/2017,19:00,37
15/01/2017,20:00,27
15/01/2017,21:00,21
15/01/2017,22:00,20
15/01/2017,23:00,17
16/01/2017,00:00,19
16/01/2017,01:00,14
16/01/2017,02:00,14
16/01/2017,03:00,14
16/01/2017,04:00,9
16/01/2017,05:00,10
16/01/2017,06:00,16
16/01/2017,07:00,15
16/01/2017,08:00,27
16/01/2017,09:00,17
16/01/2017,10:00,18
16/01/2017,11:00,19
16/01/2017,12:00,9
16/01/2017,13:00,6
16/01/2017,14:00,29
16/01/2017,15:00,30
16/01/2017,16:00,53
16/01/2017,17:00,51
16/01/2017,18:00,64
16/01/2017,19:00,49
16/01/2017,20:00,27
16/01/2017,21:00,20
16/01/2017,22:00,32
16/01/2017,23:00,26
17/01/2017,00:00,21
17/01/2017,01:00,17
17/01/2017,02:00,27
17/01/2017,03:00,10
17/01/2017,04:00,29
17/01/2017,05:00,32
17/01/2017,06:00,22
17/01/2017,07:00,40
17/01/2017,08:00,48
17/01/2017,09:00,17
17/01/2017,10:00,18
17/01/2017,11:00,15
17/01/2017,12:00,21
17/01/2017,13:00,12
17/01/2017,14:00,22
17/01/2017,15:00,28
17/01/2017,16:00,22
17/01/2017,17:00,17
17/01/2017,18:00,21
17/01/2017,19:00,13
17/01/2017,20:00,14
17/01/2017,21:00,22
17/01/2017,22:00,10
17/01/2017,23:00,18
18/01/2017,00:00,19
18/01/2017,01:00,17
18/01/2017,02:00,2
18/01/2017,03:00,11
18/01/2017,04:00,11
18/01/2017,05:00,7
18/01/2017,06:00,11
18/01/2017,07:00,14
18/01/2017,08:00,16
18/01/2017,09:00,25
18/01/2017,10:00,38
18/01/2017,11:00,20
18/01/2017,12:00,19
18/01/2017,13:00,16
18/01/2017,14:00,InVld
18/01/2017,15:00,InVld
18/01/2017,16:00,27
18/01/2017,17:00,34
18/01/2017,18:00,19
18/01/2017,19:00,44
18/01/2017,20:00,30
18/01/2017,21:00,18
18/01/2017,22:00,10
18/01/2017,23:00,12
19/01/2017,00:00,11
19/01/2017,01:00,14
19/01/2017,02:00,10
19/01/2017,03:00,8
19/01/2017,04:00,12
19/01/2017,05:00,15
19/01/2017,06:00,22
19/01/2017,07:00,33
19/01/2017,08:00,40
19/01/2017,09:00,32
19/01/2017,10:00,40
19/01/2017,11:00,32
19/01/2017,12:00,57
19/01/2017,13:00,48
19/01/2017,14:00,54
19/01/2017,15:00,48
19/01/2017,16:00,58
19/01/2017,17:00,47
19/01/2017,18:00,27
19/01/2017,19:00,34
19/01/2017,20:00,29
19/01/2017,21:00,41
19/01/2017,22:00,42
19/01/2017,23:00,33
20/01/2017,00:00,39
20/01/2017,01:00,25
20/01/2017,02:00,39
20/01/2017,03:00,20
20/01/2017,04:00,29
20/01/2017,05:00,23
20/01/2017,06:00,33
20/01/2017,07:00,49
20/01/2017,08:00,34
20/01/2017,09:00,59
20/01/2017,10:00,48
20/01/2017,11:00,78
20/01/2017,12:00,98
20/01/2017,13:00,68
20/01/2017,14:00,90
20/01/2017,15:00,94
20/01/2017,16:00,87
20/01/2017,17:00,110
20/01/2017,18:00,98
20/01/2017,19:00,80
20/01/2017,20:00,58
20/01/2017,21:00,61
20/01/2017,22:00,50
20/01/2017,23:00,51
21/01/2017,00:00,42
21/01/2017,01:00,38
21/01/2017,02:00,31
21/01/2017,03:00,36
21/01/2017,04:00,32
21/01/2017,05:00,25
21/01/2017,06:00,33
21/01/2017,07:00,34
21/01/2017,08:00,44
21/01/2017,09:00,23
21/01/2017,10:00,32
21/01/2017,11:00,30
21/01/2017,12:00,38
21/01/2017,13:00,59
21/01/2017,14:00,49
21/01/2017,15:00,45
21/01/2017,16:00,41
21/01/2017,17:00,29
21/01/2017,18:00,80
21/01/2017,19:00,60
21/01/2017,20:00,51
21/01/2017,21:00,36
21/01/2017,22:00,34
21/01/2017,23:00,29
22/01/2017,00:00,20
22/01/2017,01:00,27
22/01/2017,02:00,47
22/01/2017,03:00,37
22/01/2017,04:00,32
22/01/2017,05:00,33
22/01/2017,06:00,37
22/01/2017,07:00,38
22/01/2017,08:00,38
22/01/2017,09:00,53
22/01/2017,10:00,47
22/01/2017,11:00,75
22/01/2017,12:00,132
22/01/2017,13:00,73
22/01/2017,14:00,69
22/01/2017,15:00,54
22/01/2017,16:00,65
22/01/2017,17:00,62
22/01/2017,18:00,83
22/01/2017,19:00,70
22/01/2017,20:00,71
22/01/2017,21:00,70
22/01/2017,22:00,65
22/01/2017,23:00,63
23/01/2017,00:00,62
23/01/2017,01:00,50
23/01/2017,02:00,48
23/01/2017,03:00,46
23/01/2017,04:00,44
23/01/2017,05:00,42
23/01/2017,06:00,41
23/01/2017,07:00,44
23/01/2017,08:00,43
23/01/2017,09:00,41
23/01/2017,10:00,43
23/01/2017,11:00,49
23/01/2017,12:00,63
23/01/2017,13:00,47
23/01/2017,14:00,59
23/01/2017,15:00,85
23/01/2017,16:00,64
23/01/2017,17:00,98
23/01/2017,18:00,94
23/01/2017,19:00,102
23/01/2017,20:00,89
23/01/2017,21:00,79
23/01/2017,22:00,65
23/01/2017,23:00,36
24/01/2017,00:00,49
24/01/2017,01:00,29
24/01/2017,02:00,24
24/01/2017,03:00,35
24/01/2017,04:00,32
24/01/2017,05:00,31
24/01/2017,06:00,29
24/01/2017,07:00,42
24/01/2017,08:00,50
24/01/2017,09:00,53
24/01/2017,10:00,93
24/01/2017,11:00,111
24/01/2017,12:00,59
24/01/2017,13:00,40
24/01/2017,14:00,38
24/01/2017,15:00,27
24/01/2017,16:00,33
24/01/2017,17:00,40
24/01/2017,18:00,39
24/01/2017,19:00,35
24/01/2017,20:00,40
24/01/2017,21:00,44
24/01/2017,22:00,61
24/01/2017,23:00,62
25/01/2017,00:00,34
25/01/2017,01:00,35
25/01/2017,02:00,27
25/01/2017,03:00,26
25/01/2017,04:00,35
25/01/2017,05:00,31
25/01/2017,06:00,24
25/01/2017,07:00,19
25/01/2017,08:00,32
25/01/2017,09:00,33
25/01/2017,10:00,72
25/01/2017,11:00,30
25/01/2017,12:00,19
25/01/2017,13:00,18
25/01/2017,14:00,30
25/01/2017,15:00,37
25/01/2017,16:00,27
25/01/2017,17:00,39
25/01/2017,18:00,46
25/01/2017,19:00,57
25/01/2017,20:00,42
25/01/2017,21:00,49
25/01/2017,22:00,47
25/01/2017,23:00,37
26/01/2017,00:00,40
26/01/2017,01:00,43
26/01/2017,02:00,36
26/01/2017,03:00,33
26/01/2017,04:00,30
26/01/2017,05:00,24
26/01/2017,06:00,25
26/01/2017,07:00,29
26/01/2017,08:00,51
26/01/2017,09:00,51
26/01/2017,10:00,59
26/01/2017,11:00,85
26/01/2017,12:00,124
26/01/2017,13:00,95
26/01/2017,14:00,95
26/01/2017,15:00,94
26/01/2017,16:00,80
26/01/2017,17:00,79
26/01/2017,18:00,65
26/01/2017,19:00,71
26/01/2017,20:00,64
26/01/2017,21:00,61
26/01/2017,22:00,58
26/01/2017,23:00,47
27/01/2017,00:00,55
27/01/2017,01:00,50
27/01/2017,02:00,56
27/01/2017,03:00,51
27/01/2017,04:00,55
27/01/2017,05:00,66
27/01/2017,06:00,70
27/01/2017,07:00,72
27/01/2017,08:00,80
27/01/2017,09:00,76
27/01/2017,10:00,75
27/01/2017,11:00,84
27/01/2017,12:00,100
27/01/2017,13:00,106
27/01/2017,14:00,103
27/01/2017,15:00,96
27/01/2017,16:00,95
27/01/2017,17:00,67
27/01/2017,18:00,66
27/01/2017,19:00,89
27/01/2017,20:00,83
27/01/2017,21:00,67
27/01/2017,22:00,80
27/01/2017,23:00,75
28/01/2017,00:00,57
28/01/2017,01:00,43
28/01/2017,02:00,42
28/01/2017,03:00,39
28/01/2017,04:00,54
28/01/2017,05:00,39
28/01/2017,06:00,30
28/01/2017,07:00,48
28/01/2017,08:00,34
28/01/2017,09:00,50
28/01/2017,10:00,51
28/01/2017,11:00,55
28/01/2017,12:00,13
28/01/2017,13:00,8
28/01/2017,14:00,8
28/01/2017,15:00,26
28/01/2017,16:00,5
28/01/2017,17:00,11
28/01/2017,18:00,19
28/01/2017,19:00,27
28/01/2017,20:00,36
28/01/2017,21:00,59
28/01/2017,22:00,34
28/01/2017,23:00,31
29/01/2017,00:00,37
29/01/2017,01:00,23
29/01/2017,02:00,8
29/01/2017,03:00,23
29/01/2017,04:00,25
29/01/2017,05:00,26
29/01/2017,06:00,22
29/01/2017,07:00,24
29/01/2017,08:00,37
29/01/2017,09:00,26
29/01/2017,10:00,20
29/01/2017,11:00,20
29/01/2017,12:00,28
29/01/2017,13:00,23
29/01/2017,14:00,37
29/01/2017,15:00,40
29/01/2017,16:00,41
29/01/2017,17:00,43
29/01/2017,18:00,68
29/01/2017,19:00,52
29/01/2017,20:00,69
29/01/2017,21:00,56
29/01/2017,22:00,62
29/01/2017,23:00,40
30/01/2017,00:00,34
30/01/2017,01:00,25
30/01/2017,02:00,17
30/01/2017,03:00,22
30/01/2017,04:00,28
30/01/2017,05:00,25
30/01/2017,06:00,18
30/01/2017,07:00,34
30/01/2017,08:00,52
30/01/2017,09:00,45
30/01/2017,10:00,51
30/01/2017,11:00,60
30/01/2017,12:00,61
30/01/2017,13:00,56
30/01/2017,14:00,50
30/01/2017,15:00,35
30/01/2017,16:00,27
30/01/2017,17:00,28
30/01/2017,18:00,24
30/01/2017,19:00,43
30/01/2017,20:00,29
30/01/2017,21:00,18
30/01/2017,22:00,21
30/01/2017,23:00,14
31/01/2017,00:00,17
31/01/2017,01:00,22
31/01/2017,02:00,20
31/01/2017,03:00,22
31/01/2017,04:00,18
31/01/2017,05:00,12
31/01/2017,06:00,7
31/01/2017,07:00,3
31/01/2017,08:00,17
31/01/2017,09:00,24
31/01/2017,10:00,20
31/01/2017,11:00,35
31/01/2017,12:00,18
31/01/2017,13:00,27
31/01/2017,14:00,32
31/01/2017,15:00,26
31/01/2017,16:00,44
31/01/2017,17:00,46
31/01/2017,18:00,66
31/01/2017,19:00,79
31/01/2017,20:00,79
31/01/2017,21:00,45
31/01/2017,22:00,31
31/01/2017,23:00,26
01/02/2017,00:00,26
01/02/2017,01:00,15
01/02/2017,02:00,1
01/02/2017,03:00,5
01/02/2017,04:00,13
01/02/2017,05:00,16
01/02/2017,06:00,28
01/02/2017,07:00,24
01/02/2017,08:00,34
01/02/2017,09:00,28
01/02/2017,10:00,47
01/02/2017,11:00,24
01/02/2017,12:00,77
01/02/2017,13:00,43
01/02/2017,14:00,23
01/02/2017,15:00,-8
01/02/2017,16:00,9
01/02/2017,17:00,30
01/02/2017,18:00,43
01/02/2017,19:00,41
01/02/2017,20:00,9
01/02/2017,21:00,2
01/02/2017,22:00,InVld
01/02/2017,23:00,15
02/02/2017,00:00,25
02/02/2017,01:00,27
02/02/2017,02:00,31
02/02/2017,03:00,17
02/02/2017,04:00,5
02/02/2017,05:00,InVld
02/02/2017,06:00,11
02/02/2017,07:00,11
02/02/2017,08:00,24
02/02/2017,09:00,4
02/02/2017,10:00,12
02/02/2017,11:00,4
02/02/2017,12:00,4
02/02/2017,13:00,14
02/02/2017,14:00,21
02/02/2017,15:00,8
02/02/2017,16:00,19
02/02/2017,17:00,42
02/02/2017,18:00,59
02/02/2017,19:00,39
02/02/2017,20:00,33
02/02/2017,21:00,41
02/02/2017,22:00,34
02/02/2017,23:00,40
03/02/2017,00:00,16
03/02/2017,01:00,25
03/02/2017,02:00,22
03/02/2017,03:00,27
03/02/2017,04:00,21
03/02/2017,05:00,21
03/02/2017,06:00,26
03/02/2017,07:00,18
03/02/2017,08:00,48
03/02/2017,09:00,45
03/02/2017,10:00,36
03/02/2017,11:00,64
03/02/2017,12:00,73
03/02/2017,13:00,75
03/02/2017,14:00,81
03/02/2017,15:00,63
03/02/2017,16:00,54
03/02/2017,17:00,66
03/02/2017,18:00,55
03/02/2017,19:00,70
03/02/2017,20:00,52
03/02/2017,21:00,68
03/02/2017,22:00,65
03/02/2017,23:00,38
04/02/2017,00:00,13
04/02/2017,01:00,7
04/02/2017,02:00,10
04/02/2017,03:00,7
04/02/2017,04:00,11
04/02/2017,05:00,13
04/02/2017,06:00,11
04/02/2017,07:00,24
04/02/2017,08:00,16
04/02/2017,09:00,14
04/02/2017,10:00,14
04/02/2017,11:00,13
04/02/2017,12:00,12
04/02/2017,13:00,13
04/02/2017,14:00,20
04/02/2017,15:00,34
04/02/2017,16:00,47
04/02/2017,17:00,39
04/02/2017,18:00,53
04/02/2017,19:00,52
04/02/2017,20:00,51
04/02/2017,21:00,32
04/02/2017,22:00,56
04/02/2017,23:00,64
05/02/2017,00:00,57
05/02/2017,01:00,39
05/02/2017,02:00,39
05/02/2017,03:00,34
05/02/2017,04:00,34
05/02/2017,05:00,37
05/02/2017,06:00,33
05/02/2017,07:00,34
05/02/2017,08:00,32
05/02/2017,09:00,37
05/02/2017,10:00,41
05/02/2017,11:00,39
05/02/2017,12:00,33
05/02/2017,13:00,17
05/02/2017,14:00,125
05/02/2017,15:00,123
05/02/2017,16:00,35
05/02/2017,17:00,22
05/02/2017,18:00,33
05/02/2017,19:00,29
05/02/2017,20:00,31
05/02/2017,21:00,39
05/02/2017,22:00,33
05/02/2017,23:00,34
06/02/2017,00:00,35
06/02/2017,01:00,33
06/02/2017,02:00,24
06/02/2017,03:00,33
06/02/2017,04:00,34
06/02/2017,05:00,38
06/02/2017,06:00,39
06/02/2017,07:00,49
06/02/2017,08:00,53
06/02/2017,09:00,41
06/02/2017,10:00,42
06/02/2017,11:00,41
06/02/2017,12:00,48
06/02/2017,13:00,48
06/02/2017,14:00,56
06/02/2017,15:00,93
06/02/2017,16:00,87
06/02/2017,17:00,59
06/02/2017,18:00,36
06/02/2017,19:00,44
06/02/2017,20:00,35
06/02/2017,21:00,19
06/02/2017,22:00,36
06/02/2017,23:00,19
07/02/2017,00:00,18
07/02/2017,01:00,6
07/02/2017,02:00,8
07/02/2017,03:00,13
07/02/2017,04:00,9
07/02/2017,05:00,9
07/02/2017,06:00,14
07/02/2017,07:00,30
07/02/2017,08:00,30
07/02/2017,09:00,31
07/02/2017,10:00,28
07/02/2017,11:00,40
07/02/2017,12:00,41
07/02/2017,13:00,29
07/02/2017,14:00,16
07/02/2017,15:00,36
07/02/2017,16:00,42
07/02/2017,17:00,43
07/02/2017,18:00,87
07/02/2017,19:00,43
07/02/2017,20:00,37
07/02/2017,21:00,31
07/02/2017,22:00,28
07/02/2017,23:00,22
08/02/2017,00:00,32
08/02/2017,01:00,27
08/02/2017,02:00,14
08/02/2017,03:00,16
08/02/2017,04:00,18
08/02/2017,05:00,18
08/02/2017,06:00,23
08/02/2017,07:00,47
08/02/2017,08:00,44
08/02/2017,09:00,45
08/02/2017,10:00,43
08/02/2017,11:00,58
08/02/2017,12:00,49
08/02/2017,13:00,58
08/02/2017,14:00,43
08/02/2017,15:00,47
08/02/2017,16:00,38
08/02/2017,17:00,45
08/02/2017,18:00,56
08/02/2017,19:00,48
08/02/2017,20:00,53
08/02/2017,21:00,28
08/02/2017,22:00,26
08/02/2017,23:00,28
09/02/2017,00:00,22
09/02/2017,01:00,23
09/02/2017,02:00,29
09/02/2017,03:00,22
09/02/2017,04:00,24
09/02/2017,05:00,23
09/02/2017,06:00,14
09/02/2017,07:00,23
09/02/2017,08:00,26
09/02/2017,09:00,26
09/02/2017,10:00,31
09/02/2017,11:00,33
09/02/2017,12:00,79
09/02/2017,13:00,115
09/02/2017,14:00,130
09/02/2017,15:00,88
09/02/2017,16:00,40
09/02/2017,17:00,48
09/02/2017,18:00,37
09/02/2017,19:00,56
09/02/2017,20:00,49
09/02/2017,21:00,52
09/02/2017,22:00,29
09/02/2017,23:00,38
10/02/2017,00:00,30
10/02/2017,01:00,27
10/02/2017,02:00,24
10/02/2017,03:00,22
10/02/2017,04:00,22
10/02/2017,05:00,27
10/02/2017,06:00,23
10/02/2017,07:00,23
10/02/2017,08:00,24
10/02/2017,09:00,31
10/02/2017,10:00,36
10/02/2017,11:00,23
10/02/2017,12:00,30
10/02/2017,13:00,29
10/02/2017,14:00,32
10/02/2017,15:00,32
10/02/2017,16:00,18
10/02/2017,17:00,33
10/02/2017,18:00,40
10/02/2017,19:00,29
10/02/2017,20:00,23
10/02/2017,21:00,10
10/02/2017,22:00,16
10/02/2017,23:00,17
11/02/2017,00:00,13
11/02/2017,01:00,11
11/02/2017,02:00,16
11/02/2017,03:00,11
11/02/2017,04:00,8
11/02/2017,05:00,7
11/02/2017,06:00,4
11/02/2017,07:00,5
11/02/2017,08:00,9
11/02/2017,09:00,28
11/02/2017,10:00,28
11/02/2017,11:00,36
11/02/2017,12:00,43
11/02/2017,13:00,36
11/02/2017,14:00,19
11/02/2017,15:00,35
11/02/2017,16:00,35
11/02/2017,17:00,40
11/02/2017,18:00,45
11/02/2017,19:00,34
11/02/2017,20:00,57
11/02/2017,21:00,41
11/02/2017,22:00,33
11/02/2017,23:00,23
12/02/2017,00:00,24
12/02/2017,01:00,9
12/02/2017,02:00,7
12/02/2017,03:00,6
12/02/2017,04:00,13
12/02/2017,05:00,29
12/02/2017,06:00,30
12/02/2017,07:00,19
12/02/2017,08:00,26
12/02/2017,09:00,13
12/02/2017,10:00,24
12/02/2017,11:00,14
12/02/2017,12:00,24
12/02/2017,13:00,22
12/02/2017,14:00,31
12/02/2017,15:00,25
12/02/2017,16:00,35
12/02/2017,17:00,44
12/02/2017,18:00,59
12/02/2017,19:00,78
12/02/2017,20:00,83
12/02/2017,21:00,73
12/02/2017,22:00,74
12/02/2017,23:00,96
13/02/2017,00:00,85
13/02/2017,01:00,84
13/02/2017,02:00,89
13/02/2017,03:00,88
13/02/2017,04:00,80
13/02/2017,05:00,79
13/02/2017,06:00,89
13/02/2017,07:00,89
13/02/2017,08:00,87
13/02/2017,09:00,87
13/02/2017,10:00,86
13/02/2017,11:00,97
13/02/2017,12:00,85
13/02/2017,13:00,81
13/02/2017,14:00,92
13/02/2017,15:00,94
13/02/2017,16:00,90
13/02/2017,17:00,80
13/02/2017,18:00,86
13/02/2017,19:00,82
13/02/2017,20:00,89
13/02/2017,21:00,90
13/02/2017,22:00,89
13/02/2017,23:00,95
14/02/2017,00:00,91
14/02/2017,01:00,93
14/02/2017,02:00,86
14/02/2017,03:00,72
14/02/2017,04:00,82
14/02/2017,05:00,85
14/02/2017,06:00,81
14/02/2017,07:00,91
14/02/2017,08:00,81
14/02/2017,09:00,101
14/02/2017,10:00,89
14/02/2017,11:00,85
14/02/2017,12:00,97
14/02/2017,13:00,146
14/02/2017,14:00,121
14/02/2017,15:00,115
14/02/2017,16:00,116
14/02/2017,17:00,85
14/02/2017,18:00,92
14/02/2017,19:00,103
14/02/2017,20:00,99
14/02/2017,21:00,87
14/02/2017,22:00,71
14/02/2017,23:00,73
15/02/2017,00:00,79
15/02/2017,01:00,69
15/02/2017,02:00,58
15/02/2017,03:00,65
15/02/2017,04:00,76
15/02/2017,05:00,60
15/02/2017,06:00,81
15/02/2017,07:00,71
15/02/2017,08:00,95
15/02/2017,09:00,79
15/02/2017,10:00,69
15/02/2017,11:00,65
15/02/2017,12:00,33
15/02/2017,13:00,31
15/02/2017,14:00,27
15/02/2017,15:00,43
15/02/2017,16:00,35
15/02/2017,17:00,28
15/02/2017,18:00,31
15/02/2017,19:00,14
15/02/2017,20:00,33
15/02/2017,21:00,41
15/02/2017,22:00,35
15/02/2017,23:00,27
16/02/2017,00:00,42
16/02/2017,01:00,33
16/02/2017,02:00,39
16/02/2017,03:00,43
16/02/2017,04:00,37
16/02/2017,05:00,34
16/02/2017,06:00,31
16/02/2017,07:00,29
16/02/2017,08:00,31
16/02/2017,09:00,35
16/02/2017,10:00,34
16/02/2017,11:00,39
16/02/2017,12:00,24
16/02/2017,13:00,43
16/02/2017,14:00,34
16/02/2017,15:00,37
16/02/2017,16:00,17
16/02/2017,17:00,22
16/02/2017,18:00,19
16/02/2017,19:00,24
16/02/2017,20:00,18
16/02/2017,21:00,23
16/02/2017,22:00,27
16/02/2017,23:00,17
17/02/2017,00:00,31
17/02/2017,01:00,26
17/02/2017,02:00,28
17/02/2017,03:00,24
17/02/2017,04:00,16
17/02/2017,05:00,25
17/02/2017,06:00,24
17/02/2017,07:00,30
17/02/2017,08:00,38
17/02/2017,09:00,41
17/02/2017,10:00,34
17/02/2017,11:00,32
17/02/2017,12:00,37
17/02/2017,13:00,32
17/02/2017,14:00,28
17/02/2017,15:00,22